Location: Newark
(25.4297°S, 49.2719°W)
Time: 12:21:16
(UTC+00:00)

Courier 1B - Visible Passes

Search period start: 17 November 2019 00:00
Search period end: 27 November 2019 00:00
Orbit: 963 x 1209 km, 28.3° (Epoch: 16 November)

Date Brightness Start Highest point End Pass type
(mag) Time Alt. Az. Time Alt. Az. Time Alt. Az.
17 Nov 9.5 01:52:02 10° WSW 01:54:51 25° WSW 01:54:51 25° WSW visible
17 Nov 8.1 23:03:24 10° W 23:11:05 73° S 23:17:28 17° E visible
18 Nov 8.2 00:58:01 10° WSW 01:04:20 61° WSW 01:04:20 61° WSW visible
18 Nov 8.1 22:09:26 10° W 22:16:59 76° S 22:24:53 10° ESE visible
19 Nov 7.9 00:04:02 10° WSW 00:11:50 76° S 00:13:47 54° ESE visible
19 Nov 9.7 01:58:34 10° WSW 02:00:41 20° W 02:00:41 20° W visible
19 Nov 8.1 23:10:04 10° W 23:17:42 72° S 23:23:13 22° E visible
20 Nov 8.5 01:04:33 10° WSW 01:10:05 50° W 01:10:05 50° W visible
20 Nov 8.2 22:16:08 10° W 22:23:37 71° S 22:31:28 10° E visible
21 Nov 7.8 00:10:35 10° WSW 00:18:22 89° S 00:19:29 69° ENE visible
21 Nov 10.0 02:05:15 10° W 02:06:22 15° W 02:06:22 15° W visible
21 Nov 7.9 23:16:40 10° WSW 23:24:18 81° S 23:28:52 28° E visible
22 Nov 8.9 01:11:08 10° W 01:15:44 37° W 01:15:44 37° W visible
22 Nov 8.1 22:22:47 10° W 22:30:15 75° S 22:38:05 10° E visible
23 Nov 7.8 00:17:09 10° WSW 00:24:48 70° NNW 00:25:07 70° N visible
23 Nov 7.8 23:23:14 10° WSW 23:30:49 82° NNW 23:34:30 35° ENE visible
24 Nov 9.4 01:17:59 10° W 01:21:23 25° WNW 01:21:23 25° WNW visible
24 Nov 7.9 22:29:23 10° WSW 22:36:49 87° SSE 22:43:54 13° ENE visible
25 Nov 8.3 00:23:51 10° W 00:30:47 48° NNW 00:30:47 48° NNW visible
25 Nov 8.0 23:29:51 10° W 23:37:13 60° NNW 23:40:12 38° NE visible
26 Nov 9.9 01:25:25 10° W 01:27:04 15° WNW 01:27:04 15° WNW visible
26 Nov 7.9 22:35:59 10° WSW 22:43:17 72° NNW 22:49:39 16° ENE visible
